View from above orbital plane
|
View from above satellite
|
Ground track
|
The orbit data is extracted from the following two-line orbital elements,
1 00877U 64053B 21022.79426422 -.00000075 00000-0 99423-5 0 9998
2 00877 65.0781 47.9843 0079594 305.4223 53.9460 14.59414667993509
Epoch (UTC): | 22 January 2021 19:03:44 |
Eccentricity: | 0.0079594 |
inclination: | 65.0781° |
perigee height: | 639 km |
apogee height: | 751 km |
right ascension of ascending node: | 47.9843° |
argument of perigee: | 305.4223° |
revolutions per day: | 14.59414667 |
mean anomaly at epoch: | 53.9460° |
orbit number at epoch: | 99350 |
The dashed part of the orbit path shows where the satellite is in the earth's shadow,
|
|